This is the latest recevied weather packets stored in our database for station/object W8DRH-13. If no packets are shown the sender has not sent any weather packets the latest 10 day(s).
| Time | Temp. | Humidity | Pressure | Rain* | Wind** | Luminosity | Snow |
|---|---|---|---|---|---|---|---|
| 1778033521 | 8.89° C | 98% | 1007 hPa | 4.32 mm | - | 0 W/m² | - |
| 1778033218 | 8.89° C | 98% | 1007.1 hPa | 4.32 mm | - | 0 W/m² | - |
| 1778032915 | 8.89° C | 98% | 1006.5 hPa | 6.1 mm | - | 0 W/m² | - |
| 1778032613 | 9.44° C | 98% | 1006.5 hPa | 7.87 mm | - | 0 W/m² | - |
| 1778032310 | 9.44° C | 98% | 1006.4 hPa | 7.87 mm | - | 0 W/m² | - |
| 1778032007 | 9.44° C | 98% | 1006.5 hPa | 4.83 mm | - | 0 W/m² | - |
| 1778031703 | 9.44° C | 98% | 1006.3 hPa | 3.05 mm | - | 0 W/m² | - |
| 1778031401 | 9.44° C | 98% | 1006.3 hPa | 4.32 mm | - | 0 W/m² | - |
| 1778031098 | 9.44° C | 98% | 1006.2 hPa | 4.83 mm | - | 0 W/m² | - |
| 1778030794 | 9.44° C | 98% | 1006 hPa | 3.05 mm | - | 0 W/m² | - |
| 1778030491 | 9.44° C | 98% | 1005.7 hPa | 1.27 mm | - | 0 W/m² | - |
| 1778030188 | 9.44° C | 98% | 1005.9 hPa | 1.78 mm | - | 0 W/m² | - |
| 1778029884 | 9.44° C | 98% | 1005.8 hPa | 3.05 mm | - | 0 W/m² | - |
| 1778029583 | 9.44° C | 98% | 1006 hPa | 3.05 mm | - | 0 W/m² | - |
| 1778029280 | 9.44° C | 98% | 1006 hPa | 4.83 mm | - | 0 W/m² | - |
| 1778028977 | 9.44° C | 98% | 1006.1 hPa | 4.83 mm | - | 0 W/m² | - |
| 1778028673 | 10° C | 98% | 1006 hPa | 3.05 mm | - | 0 W/m² | - |
| 1778028370 | 10° C | 98% | 1005.9 hPa | 4.32 mm | - | 0 W/m² | - |
| 1778028067 | 10° C | 98% | 1005.8 hPa | 6.1 mm | - | 0 W/m² | - |
| 1778027763 | 10° C | 98% | 1005.9 hPa | 7.87 mm | - | 0 W/m² | - |
| 1778027459 | 10° C | 98% | 1005.9 hPa | 8.89 mm | - | 0 W/m² | - |
| 1778027155 | 10.56° C | 98% | 1005.6 hPa | 10.67 mm | - | 0 W/m² | - |
| 1778026851 | 10.56° C | 98% | 1005.4 hPa | 7.87 mm | - | 0 W/m² | - |
| 1778026548 | 10.56° C | 98% | 1005.5 hPa | 7.11 mm | - | 0 W/m² | - |
| 1778026245 | 11.11° C | 98% | 1005.4 hPa | 8.89 mm | - | 0 W/m² | - |
* Rain latest hour (hover to see other rain measurements)
** Current wind speed in m/s (hover to see current wind gust speed)